Flag for Germany Weather past 2 weeks in Ludwigsfelde, Brandenburg, Germany

Now
42 °F

Passing clouds.


Feels Like: 40 °F
Forecast: 39 / 71 °F
Wind: 3 mph from Southeast

Location: Potsdam


UV Index: 3 (Moderate)

Visibility: 31 mi


Pressure: 29.98 "Hg

Humidity: 87%

Dew point: 39 °F

Location of LudwigsfeldeLocation

Historic Weather in Ludwigsfelde

°F

Ludwigsfelde temperature yesterday

Maximum temperature yesterday: 57 °F (at 1:00 PM)
Minimum temperature yesterday: 36 °F (at 7:00 AM)
Average temperature yesterday: 47 °F

Past Weeks' High & Low Weather Summary

 TemperatureHumidityPressure
High69 °F (Apr 7, 5:00 PM)99% (Apr 12, 4:00 AM)30.46 "Hg (Apr 12, 4:00 AM)
Low34 °F (Apr 16, 6:00 AM)27% (Apr 16, 3:00 PM)29.71 "Hg (Apr 14, 12:00 PM)
Average50 °F72%30.02 "Hg
* Reported Apr 3 10:00 PM — Apr 18 10:00 PM, Ludwigsfelde, Weather by CustomWeather, © 2014

Note: Actual official high and low records may vary slightly from our data, if they occured in-between our weather recording intervals... More about our weather records

Advertising

Historic Weather Conditions — Data for Previous 24 hours

 ConditionsComfort  
Time TempWeatherWind HumidityBarometerVisibility
10:00 PM
Apr 18
44 °FPassing clouds.2 mph85%29.95 "Hg31 mi
9:00 PM46 °FPassing clouds.2 mph82%29.93 "Hg31 mi
8:00 PM48 °FPartly sunny.3 mph70%29.90 "Hg31 mi
7:00 PM52 °FSprinkles. Partly sunny.3 mph60%29.87 "Hg31 mi
6:00 PM50 °FPartly sunny.2 mph68%29.85 "Hg31 mi
5:00 PM51 °FPartly sunny.2 mph67%29.83 "Hg28 mi
4:00 PM47 °FSprinkles. Partly sunny.5 mph83%29.83 "Hg28 mi
3:00 PM51 °FPartly sunny.2 mph61%29.82 "Hg31 mi
2:00 PM49 °FScattered clouds.2 mph66%29.81 "Hg28 mi
1:00 PM46 °FOvercast.1 mph81%29.81 "Hg19 mi
12:00 PM46 °FSprinkles. Overcast.3 mph89%29.80 "Hg10 mi
11:00 AM47 °FOvercast.5 mph82%29.79 "Hg22 mi
10:00 AM45 °FOvercast.5 mph91%29.78 "Hg22 mi
9:00 AM44 °FOvercast.5 mph96%29.78 "Hg22 mi
8:00 AM43 °FOvercast.5 mph97%29.77 "Hg22 mi
7:00 AM42 °FOvercast.3 mph97%29.77 "Hg22 mi
6:00 AM44 °FLight rain. Low clouds.7 mph95%29.77 "Hg5 mi
5:00 AM45 °FLight rain. Overcast.5 mph96%29.76 "Hg6 mi
4:00 AM45 °FLight rain. Overcast.7 mph93%29.78 "Hg9 mi
3:00 AM49 °FLight rain. Overcast.6 mph61%29.79 "Hg22 mi
2:00 AM47 °FOvercast.6 mph59%29.79 "Hg25 mi
Weather by CustomWeather, © 2014

See weather overview